Lid_Strength_Index
1 2 2 2 1 2 2 3 3 5 5 3 3 3 3 4 1 1 2 1 1 1 -0 -1 -1 -2 -2 -2 -2 -2 -3 -3 -2 -2 -2 -1 -1 -1
4 2 2 2 2 2 2 3 3 4 5 4 3 3 3 3 3 2 2 2 2 2 1 -0 -1 -0 -1 -2 -2 -2 -2 -2 -2 -2 -2 -2 -1 -1
5 5 2 2 2 2 3 4 4 5 5 5 5 4 4 3 3 4 3 3 3 3 -0 -0 -0 -0 0 -1 -2 -2 -2 -2 -1 -1 -2 -2 -2 -1
5 6 4 2 3 3 4 4 5 6 6 7 6 5 5 4 4 5 4 4 4 3 0 0 0 0 0 0 -1 -1 -1 -2 -2 -2 -1 -1 -2 -1
5 6 6 5 4 5 5 6 7 7 7 7 7 7 6 5 5 5 4 4 4 3 2 1 1 1 1 1 0 -0 0 1 1 0 -1 -1 -1 -1
5 5 6 6 5 6 6 7 8 8 7 7 7 7 7 5 6 7 6 5 5 4 3 3 2 2 1 1 1 -0 -0 1 1 1 1 0 0 -0
6 5 6 6 6 6 8 8 8 8 8 8 7 7 7 7 7 7 7 7 5 5 4 3 4 3 3 2 2 1 0 0 0 1 1 1 0 1
6 7 6 5 6 6 6 7 8 8 8 8 7 7 6 7 7 7 7 7 7 4 5 5 4 4 3 2 1 0 0 0 -0 -0 -0 0 0 0
7 8 8 6 6 7 5 6 7 6 6 6 6 7 7 6 6 7 7 7 7 5 5 6 4 5 2 2 1 1 1 0 0 -0 -1 0 0 1
7 8 8 7 6 7 8 7 9 9 7 5 5 5 6 6 6 7 7 7 6 6 5 7 5 5 3 1 0 -0 -1 -0 -0 -1 -1 1 1 2
7 7 8 8 7 8 8 9 10 10 8 7 6 5 5 5 5 7 6 8 7 7 6 6 5 6 3 1 -0 -1 -0 0 0 -1 -1 1 1 1
7 8 8 8 10 9 8 11 10 10 9 10 8 7 6 6 6 5 6 7 8 8 6 6 6 5 6 2 2 1 1 1 1 1 1 1 2 -1
6 8 8 10 12 12 11 11 11 11 10 9 9 7 7 7 6 6 6 6 7 8 6 6 6 6 5 5 4 3 2 2 1 0 2 2 2 1
5 6 7 11 13 13 11 12 12 11 10 10 10 8 8 7 6 7 6 7 6 6 5 7 7 6 6 6 6 4 3 2 2 1 1 2 2 2
4 6 10 13 14 12 12 13 11 12 11 10 10 8 8 7 7 7 6 6 6 6 7 7 7 5 5 6 6 5 5 4 2 4 4 4 3 2
7 8 10 11 11 11 12 12 12 12 11 10 10 9 8 7 8 8 7 7 8 8 7 7 5 4 5 5 5 5 4 6 5 5 4 5 4 2
7 8 10 10 11 12 13 12 11 12 11 10 10 9 8 8 9 8 8 8 9 9 9 7 4 4 4 5 6 5 5 6 7 7 7 7 5 3
9 9 10 11 12 11 12 12 12 13 11 10 9 9 9 9 9 9 9 9 10 10 9 8 7 7 6 5 4 6 6 8 8 8 8 8 7 6
9 9 10 11 10 11 11 11 12 12 9 9 9 9 9 9 10 10 9 9 10 10 9 8 8 8 9 9 6 5 9 9 9 10 9 9 9 8
10 11 11 10 9 10 11 11 12 10 10 10 10 10 10 9 10 10 10 10 10 10 9 8 8 8 9 9 9 8 8 9 10 10 10 9 9 7
11 10 10 10 11 10 10 11 10 10 10 11 10 10 10 10 10 10 9 11 10 10 10 9 8 7 7 7 10 10 9 9 9 11 10 11 11 10
11 10 11 11 10 10 10 11 11 10 10 10 10 10 10 9 10 10 9 9 9 9 9 9 7 8 8 10 12 11 11 10 9 9 9 9 11 12
11 11 12 11 10 10 10 11 10 10 10 10 11 11 10 11 10 9 9 10 10 9 9 9 8 8 9 10 12 12 12 11 11 12 11 9 9 9